Voltar ao catálogo

STARLINK-4450

AtivoComunicaçõesSSO
NORAD 53491·PAYLOAD·🇺🇸 United States

Lançado Aug 12, 2022 de Vandenberg Space Force Base

Loading…

Próximas Passagens (próximas 24 horas)

TLE

AtualizadoSource: CelesTrak SupGP

Época: Sep 15, 2026, 01:24 UTC

1 53491C 22099AC  26258.05881944 -.00055468  00000+0 -15394-2 0  2587
2 53491  97.5085  25.9031 0000851  89.0579  79.8573 15.36990447    18

Acompanhe STARLINK-4450 em tempo real com AllMySat

Download on the App Store